This is the latest recevied weather packets stored in our database for station/object KN4AN. If no packets are shown the sender has not sent any weather packets the latest 10 day(s).
| Time | Temp. | Humidity | Pressure | Rain* | Wind** | Luminosity | Snow |
|---|---|---|---|---|---|---|---|
| 1788033585 | 31.11° C | 53% | 1021.8 hPa | 0 mm | - | 447 W/m² | - |
| 1788033280 | 31.11° C | 54% | 1021.8 hPa | 0 mm | - | 471 W/m² | - |
| 1788032976 | 30.56° C | 52% | 1022 hPa | 0 mm | - | 483 W/m² | - |
| 1788032676 | 30.56° C | 53% | 1022 hPa | 0 mm | - | 494 W/m² | - |
| 1788032371 | 31.11° C | 51% | 1022 hPa | 0 mm | - | 512 W/m² | - |
| 1788032066 | 30.56° C | 55% | 1022.1 hPa | 0 mm | - | 533 W/m² | - |
| 1788031762 | 30.56° C | 55% | 1022 hPa | 0 mm | - | 546 W/m² | - |
| 1788031462 | 30.56° C | 55% | 1022.1 hPa | 0 mm | - | 558 W/m² | - |
| 1788031162 | 31.11° C | 53% | 1022.3 hPa | 0 mm | - | 563 W/m² | - |
| 1788030861 | 30.56° C | 55% | 1022.6 hPa | 0 mm | - | 602 W/m² | - |
| 1788030555 | 30° C | 55% | 1022.7 hPa | 0 mm | - | 598 W/m² | - |
| 1788030251 | 29.44° C | 57% | 1022.7 hPa | 0 mm | - | 625 W/m² | - |
| 1788029951 | 30.56° C | 55% | 1022.6 hPa | 0 mm | - | 186 W/m² | - |
| 1788029646 | 30.56° C | 54% | 1022.9 hPa | 0 mm | - | 664 W/m² | - |
| 1788029342 | 30° C | 56% | 1022.9 hPa | 0 mm | - | 642 W/m² | - |
| 1788029040 | 30° C | 54% | 1023.2 hPa | 0 mm | - | 647 W/m² | - |
| 1788028740 | 30.56° C | 54% | 1023.1 hPa | 0 mm | - | 659 W/m² | - |
| 1788028434 | 29.44° C | 57% | 1023.2 hPa | 0 mm | - | 664 W/m² | - |
| 1788028131 | 30° C | 56% | 1023.1 hPa | 0 mm | - | 681 W/m² | - |
| 1788027831 | 29.44° C | 56% | 1023.2 hPa | 0 mm | - | 720 W/m² | - |
| 1788027531 | 29.44° C | 59% | 1023.3 hPa | 0 mm | - | 757 W/m² | - |
| 1788027231 | 30° C | 57% | 1023.5 hPa | 0 mm | - | 228 W/m² | - |
| 1788026930 | 30° C | 58% | 1023.5 hPa | 0 mm | - | 775 W/m² | - |
| 1788026625 | 29.44° C | 56% | 1023.5 hPa | 0 mm | - | 384 W/m² | - |
| 1788026320 | 30° C | 56% | 1023.6 hPa | 0 mm | - | 785 W/m² | - |
* Rain latest hour (hover to see other rain measurements)
** Current wind speed in m/s (hover to see current wind gust speed)